Flag for Canada Weather past 2 weeks in London, Ontario, Canada

Now
43 °F

Overcast.


Feels Like: 37 °F
Forecast: 36 / 56 °F
Wind: 9 mph from Northeast

Location: London Weather Station

Current Time: Oct 22, 2014 at 12:25:58 AM

Latest Report: Oct 21, 2014 at 11:00 PM


Visibility: 15 mi

Pressure: 30.17 "Hg

Humidity: 87%

Dew point: 39 °F

Location of LondonLocation

Historic Weather in London — Graph

°F

London temperature yesterday

Maximum temperature yesterday: 50 °F (at 12:00 AM)
Minimum temperature yesterday: 43 °F (at 11:00 PM)
Average temperature yesterday: 46 °F

Past Weeks' High & Low Weather Summary

 TemperatureHumidityPressure
High68 °F (Oct 14, 11:00 AM)100% (Oct 7, 5:00 AM)30.28 "Hg (Oct 7, 5:00 AM)
Low30 °F (Oct 12, 5:00 AM)41% (Oct 12, 5:00 PM)29.50 "Hg (Oct 17, 3:00 PM)
Average50 °F85%29.91 "Hg
* Reported Oct 6 11:00 PM — Oct 21 11:00 PM, London, Weather by CustomWeather, © 2014

Note: Actual official high and low records may vary slightly from our data, if they occured in-between our weather recording intervals... More about our weather records

Advertising

London weather history for previous 24 hours

 ConditionsComfort  
Time TempWeatherWind HumidityBarometerVisibility
11:00 PM
Oct 21
43 °FOvercast.9 mph87%30.17 "Hg15 mi
10:00 PM45 °FOvercast.10 mph87%30.15 "Hg15 mi
9:00 PM45 °FOvercast.12 mph87%30.13 "Hg15 mi
8:00 PM45 °FOvercast.10 mph87%30.10 "Hg15 mi
7:00 PM45 °FOvercast.16 mph87%30.08 "Hg15 mi
6:46 PM45 °FOvercast.14 mph87%30.07 "Hg15 mi
6:00 PM45 °FMore clouds than sun.12 mph87%30.06 "Hg15 mi
5:49 PM45 °FOvercast.13 mph87%30.05 "Hg15 mi
5:00 PM45 °FLow clouds.12 mph93%30.03 "Hg15 mi
4:00 PM45 °FMore clouds than sun.10 mph93%30.00 "Hg15 mi
3:00 PM46 °FLow clouds.17 mph87%29.97 "Hg15 mi
2:00 PM46 °FSprinkles. Overcast.15 mph87%29.95 "Hg10 mi
1:00 PM46 °FSprinkles. Overcast.15 mph93%29.95 "Hg10 mi
12:00 PM45 °FSprinkles. Overcast.15 mph93%29.94 "Hg10 mi
11:00 AM45 °FSprinkles. Low clouds.14 mph93%29.93 "Hg10 mi
10:00 AM45 °FLow clouds.13 mph93%29.92 "Hg10 mi
9:00 AM46 °FMostly cloudy.14 mph87%29.90 "Hg10 mi
8:00 AM46 °FMostly cloudy.8 mph93%29.88 "Hg10 mi
7:00 AM46 °FMostly cloudy.8 mph93%29.85 "Hg10 mi
6:00 AM48 °FSprinkles. Mostly cloudy.6 mph100%29.85 "Hg8 mi
5:00 AM48 °FSprinkles. Fog.3 mph100%29.83 "Hg2 mi
4:00 AM48 °FSprinkles. Fog.3 mph100%29.83 "Hg2 mi
3:00 AM48 °FSprinkles. Fog.5 mph100%29.83 "Hg3 mi
2:53 AM48 °FSprinkles. Fog.5 mph94%29.83 "Hg3 mi
2:00 AM48 °FFog.5 mph94%29.83 "Hg4 mi
1:00 AM50 °FFog.6 mph94%29.83 "Hg2 mi
12:00 AM50 °FFog.6 mph94%29.83 "Hg3 mi
Weather by CustomWeather, © 2014

See weather overviewHow to use our weather pages